Powrót do katalogu

COSMOS 2251 DEB

AktywnyLEO
NORAD 40228·DEBRIS·🇷🇺 Russia

Wystrzelony Jun 16, 1993 z Plesetsk Cosmodrome

Loading…

Następne Przeloty (najbliższe 24 godziny)

TLE

Starzejące sięSource: Space-Track

Epoka: Sep 10, 2026, 09:05 UTC

1 40228U 93036BVH 26253.37848442  .00000451  00000-0  14658-3 0  9992
2 40228  74.0532 118.1621 0022693 116.2204  58.7981 14.41445704628342

Śledź COSMOS 2251 DEB w czasie rzeczywistym z AllMySat

Download on the App Store